Terminal Aerodrome Forecast
Issued by NWS

Home | Current Version | Previous Version | Text Only | Print | Product List | Glossary On
Versions: 1 2 3 4 5 6 7 8 9 10 11 12
000
FTUS41 KBTV 282320
TAFPBG
TAF
KPBG 282320Z 2900/2924 VRB03KT P6SM SCT120
     FM290600 33005KT P6SM BKN250
     FM291400 05010KT P6SM SCT200=

USA.gov is the U.S. government's official web portal to all federal, state and local government web resources and services.